Regional Weather Roundup
Issued by NWS

Home | Current Version | Previous Version | Graphics & Text | Print | Product List | Glossary On
Versions: 1 2 3 4 5 6 7 8 9 10 11 12 13 14 15 16 17 18 19 20 21 22 23 24 25 26 27 28 29 30 31 32 33 34 35 36 37 38 39 40 41 42 43 44 45 46 47 48 49 50
000
ASUS43 KTOP 130259
RWRKS

WEATHER ROUNDUP FOR KANSAS
NATIONAL WEATHER SERVICE GOODLAND KS
900 PM CST TUE NOV 12 2019

NOTE:  "FAIR" INDICATES FEW OR NO CLOUDS BELOW 12,000 FEET WITH NO
SIGNIFICANT WEATHER AND/OR OBSTRUCTIONS TO VISIBILITY.

KSZ001>006-013>018-027>032-041>047-130400-
NORTHWEST KANSAS

CITY           SKY/WX    TMP DP  RH WIND       PRES   REMARKS
GOODLAND       CLEAR     37  11  34 S14       29.94F WCI  28
HAYS           CLEAR     30   8  39 S12       30.08F WCI  20
HILL CITY      CLEAR     36  12  37 S14G23    30.02F WCI  27
RUSSELL        CLEAR     29   6  38 S22G33    30.07F WCI  15
$$

KSZ061>065-074>080-084>089-130400-
SOUTHWEST KANSAS

CITY           SKY/WX    TMP DP  RH WIND       PRES   REMARKS
DODGE CITY     CLEAR     29   6  38 S17       30.09F WCI  17
GARDEN CITY    CLEAR     30  11  45 S10       30.04F WCI  21
GREAT BEND     CLEAR     27   9  46 S20       30.12F WCI  13
LIBERAL        CLEAR     35  14  42 S14       30.08F WCI  26
$$

KSZ066>073-081>083-090>101-130400-
SOUTHEAST KANSAS

CITY           SKY/WX    TMP DP  RH WIND       PRES   REMARKS
CHANUTE        CLEAR     22  13  68 S10       30.36S WCI  11
COFFEYVILLE    CLEAR     22  11  62 S8        30.38F
HUTCHINSON     CLEAR     26   8  46 S16       30.21F WCI  14
MEDICINE LODGE   N/A     26  11  52 S12G22    30.22F WCI  16
NEWTON         CLEAR     23   8  52 S18       30.23F WCI   9
PARSONS        CLEAR     22  13  68 S5        30.39S
WICHITA INTL   CLEAR     25   8  48 S12       30.26F WCI  14
WICHITA JABRA  CLEAR     24   8  50 S10       30.27F WCI  14
WICHITA MCCONL CLEAR     25   7  46 SE15      30.27F WCI  13
WINFIELD       CLEAR     24   9  52 S12       30.32F WCI  13
$$

KSZ007>012-019>026-033>040-048>060-102>105-130400-
NORTHEAST KANSAS

CITY           SKY/WX    TMP DP  RH WIND       PRES   REMARKS
CONCORDIA      CLEAR     29   6  38 S18G26    30.11F WCI  16
EMPORIA        CLEAR     21  10  62 S15       30.27F WCI   8
LAWRENCE       CLEAR     23  12  62 S10       30.29F WCI  12
MANHATTAN      CLEAR     28   5  37 S13G21    30.22F WCI  17
OLATHE IND     CLEAR     21  11  65 S13       30.29F WCI   9
OLATHE EXE     CLEAR     19  13  77 S10       30.29F WCI   7
SALINA         CLEAR     27   7  42 S20G31    30.17F WCI  13
TOPEKA BILLARD CLEAR     25  11  55 S14G21    30.27F WCI  13
TOPEKA FORBES  CLEAR     23  10  57 S15       30.26F WCI  10
$$



USA.gov is the U.S. government's official web portal to all federal, state and local government web resources and services.